Location: Bogotá
(4.6533°N, 74.0837°W)
Time: 08:41:04
(UTC+00:00)

ISS - Pass Details

Date: 11 July 2024
Orbit: 409 x 423 km, 51.6° (Epoch: 24 July)

Event Time Altitude Azimuth Distance (km) Brightness Sun altitude
Rises 23:03:08 0° 231° (SW) 2,338 0.5 1.5°
Reaches altitude 10° 23:05:23 10° 242° (WSW) 1,473 -0.3 1.0°
Maximum altitude 23:08:20 30° 306° (NW) 753 -1.3 0.3°
Drops below altitude 10° 23:11:17 10° 10° (N) 1,462 -0.8 -0.4°
Sets 23:13:30 0° 21° (NNE) 2,319 0.0 -0.9°
